Terminal Aerodrome Forecast
Issued by NWS Sioux Falls, SD

Home | Current Version | Previous Version | Text Only | Print | Product List | Glossary On
Versions: 1 2 3 4 5 6 7 8 9 10 11 12 13 14 15 16 17 18 19 20 21 22 23 24 25 26 27 28 29 30 31 32 33
000
FTUS43 KFSD 091727
TAFSUX
TAF
KSUX 091727Z 0918/1018 04006KT P6SM FEW050 FEW200
     FM092000 36010KT P6SM SKC
     FM100200 VRB03KT P6SM SKC
     FM101600 20007KT P6SM SKC=

USA.gov is the U.S. government's official web portal to all federal, state and local government web resources and services.